CZ-6A DEB, 55874

Orbit data source: Space-Track

CZ-6A DEB, 55874 is space debris in SSO originally from a launch on Fri, 11 Nov 2022 UTC launched from the Taiyaun Space Center, China (TSC). Debris objects in space refer to the collection of defunct objects orbiting the Earth. Examples of debris include non-operational satellites, rocket bodies, and fragments generated from explosions, collisions, or faulty payload assembly.

Loading next visibility...
Identifier
55874, 2022-151ZW
Orbit
SSO
Country
Flag of CNCN / PRC
Related business
Manufacturer
SAST
Mission
Spacecraft
Bus & Motor
Unknown
Mass
Unknown
Launch date (UTC)
2022-11-11 (4 years ago)
Launch vehicle
Unknown
Launch site
Taiyaun Space Center, China (TSC)
Object type
Payload
Rocket body
Debris
Shape & HBR
Unknown shape, 1.1 m
Radar Cross Section
Medium (>0.1 m² and <1 m²)

Expand to show TLE details & history
Last TLE update: 2 days ago

TLE from 2 days ago
0 CZ-6A DEB
1 55874U 22151ZW  26171.41530931  .00002006  00000-0  10488-2 0  9994
2 55874  98.8329 166.0962 0064108 336.7234  23.1039 14.14463047173268
Epoch: 2026-06-20T09:58Z
TLE epoch observation values (Epoch: 2026-06-20T09:58:02.724Z)
Latitude
-0.00003°
Longitude
107.95459°
Altitude
804.493 km
Speed
7.473 km/s
True Right ascension
11h 04m 23s
True Declination
0° 00' 00"
Sunlit
Object was in daylight at epoch
Visualization orbit readout
Latitude
Unknown
Longitude
Unknown
Altitude
Unknown
Speed
Unknown
Apparent Right ascension
Unknown
Apparent Declination
Unknown
Sunlit
N/A
Visualization observer readout
Local Sidereal Time
21:24:09
Azimuth
Unknown
Elevation
Unknown
Doppler factor
Unknown
Orbital elements
Apogee altitude
887.594 km
Perigee altitude
795.029 km
Semi-major axis
7,219.448 km
Eccentricity
0.00641
Inclination
98.8329°
RAAN
166.0962°
Arg. of periapsis
336.7234°
True anomaly
23.3943°
Mean anomaly
23.1039°
Eccentric anomaly
23.24889°
Mean motion
3.53824 °/min
Orbital period
101.75 mins
BSTAR
0.0010488
Loading maneuver chart data...
Computing Atmospheric mass density...
Loading historical data...
Loading historical data...
Loading historical data...
Loading historical data...
Loading historical data...
Loading historical data...
Loading historical data...

Documentation

Showing up to 5 results
|